Regional Weather Roundup
Issued by NWS

Home | Current Version | Previous Version | Graphics & Text | Print | Product List | Glossary On
Versions: 1 2 3 4 5 6 7 8 9 10 11 12 13 14 15 16 17 18 19 20 21 22 23 24 25 26 27 28 29 30 31 32 33 34 35 36 37 38 39 40 41 42 43 44 45 46 47 48 49 50
000
ASUS45 KBOI 311210
RWRID

IDAHO REGIONAL WEATHER ROUNDUP
NATIONAL WEATHER SERVICE BOISE ID
600 AM MDT TUE MAY 31 2016

NOTE: "FAIR" INDICATES FEW OR NO CLOUDS BELOW 12000 FEET
WITH NO SIGNIFICANT WEATHER AND/OR OBSTRUCTIONS TO VISIBILITY

IDZ012-014-311300-
SOUTHWEST IDAHO


CITY           SKY/WX    TMP DP  RH WIND       PRES   REMARKS
BOISE          CLEAR     49  37  63 SW3       30.10R
CALDWELL       CLEAR     50  36  58 SW3       30.11
MOUNTAIN HOME  CLEAR     56  40  53 NW12      30.10R
$$

IDZ016-017-311300-
SOUTHCENTRAL IDAHO


CITY           SKY/WX    TMP DP  RH WIND       PRES   REMARKS
BURLEY         CLEAR     43  33  68 CALM      30.11R
JEROME         CLEAR     44  31  60 E8        30.12R
TWIN FALLS     CLEAR     47  30  51 S9        30.11R
$$

IDZ019>023-311300-
SOUTHEAST IDAHO


CITY           SKY/WX    TMP DP  RH WIND       PRES   REMARKS
IDAHO FALLS    CLEAR     37  31  78 N7        30.15R WCI  32
POCATELLO      CLEAR     38  30  73 SE5       30.13R WCI  34
REXBURG        CLEAR     39  30  70 E8        30.17R WCI  33
$$

IDZ006-010-011-018-031-032-311300-
CENTRAL IDAHO MOUNTAINS


CITY           SKY/WX    TMP DP  RH WIND       PRES   REMARKS
MCCALL         CLEAR     38  30  73 S3        30.17S
HAILEY         CLEAR     41  32  70 NW9       30.18R
STANLEY          N/A     29  24  82 S5        30.23S WCI  24
SALMON         CLEAR     36  27  69 CALM      30.20R
CHALLIS        CLEAR     41  28  60 SE6       30.19R
$$

IDZ002-004-006-007-026-311300-
NORTHERN IDAHO


CITY           SKY/WX    TMP DP  RH WIND       PRES   REMARKS
LEWISTON       CLEAR     47  36  65 S3        30.17S
LOWELL           N/A     43  40  89 CALM      30.25R
COEUR D`ALENE  CLEAR     41  37  87 E5        30.17S
MULLAN PASS    CLEAR     43  27  53 NW5       30.23R
$$



USA.gov is the U.S. government's official web portal to all federal, state and local government web resources and services.